View from above orbital plane
|
View from above satellite
|
Ground track
|
The orbit data is extracted from the following two-line orbital elements,
1 45876U 20046D 21056.81865396 0.00002400 00000-0 20073-3 0 06
2 45876 53.9792 29.8157 0011664 144.9978 215.0021 14.97983548 08
Epoch (UTC): | 25 February 2021 19:38:51 |
Eccentricity: | 0.0011664 |
inclination: | 53.9792° |
perigee height: | 565 km |
apogee height: | 581 km |
right ascension of ascending node: | 29.8157° |
argument of perigee: | 144.9978° |
revolutions per day: | 14.97983548 |
mean anomaly at epoch: | 215.0021° |
orbit number at epoch: | 0 |
The dashed part of the orbit path shows where the satellite is in the earth's shadow,
|
|